EW5808 Cabra ES current weather conditions

sailwx.info

Wind from 111

Air temperature 13.3° C
Dewpoint 7.3° C

Last reported at 2020-Jan-17 18:03 UTC.
Time now 2020-Jan-17 18:19 UTC

Location: N 37°28' W 004°27'.
View on Google Maps.

See reports from other nearby stations

  
Tides and Currents Weather Stations Pressure Air Temp Water Temp Dewpoint Dewpoint Depression Visibility Wind Speed Wind Dir Waves Ship Positions
date/time (UTC)wind fromknots sea level pressurealtimeterstation pressurevisibilityair tempwater tempwave heightnotes
2020-Jan-17 18:03 111 13.3
2020-Jan-17 17:53 360 13.9
2020-Jan-17 17:48 360 13.9
2020-Jan-17 17:43 360 13.9
2020-Jan-17 17:38 360 14.4
2020-Jan-17 17:33 360 14.4
2020-Jan-17 17:28 360 14.4
2020-Jan-17 17:23 360 14.4
2020-Jan-17 17:18 360 15.0
2020-Jan-17 17:13 360 15.0
2020-Jan-17 17:08 350 15.0
2020-Jan-17 17:03 312 15.6
2020-Jan-17 16:58 311 15.6
2020-Jan-17 16:53 311 15.6
2020-Jan-17 16:48 311 15.6
2020-Jan-17 16:43 311 15.6
2020-Jan-17 16:38 311 15.6
2020-Jan-17 16:33 310 1 gusting 5 16.1
2020-Jan-17 16:28 062 2 gusting 5 16.1
2020-Jan-17 16:23 360 16.1
2020-Jan-17 16:18 360 1 gusting 3 16.1
2020-Jan-17 16:13 360 0 gusting 3 16.1
2020-Jan-17 16:08 360 0 gusting 6 16.1
2020-Jan-17 16:03 360 1 gusting 6 16.1
2020-Jan-17 15:58 360 2 gusting 5 16.1
2020-Jan-17 15:53 306 1 gusting 3 16.1
2020-Jan-17 15:48 316 16.1
2020-Jan-17 15:43 360 0 gusting 4 16.1
2020-Jan-17 15:38 360 16.1
2020-Jan-17 15:33 307 0 gusting 3 16.7
2020-Jan-17 15:28 285 0 gusting 3 16.7
2020-Jan-17 15:23 294 16.7
2020-Jan-17 15:18 291 16.7
2020-Jan-17 15:13 291 16.7
2020-Jan-17 15:08 291 16.1
2020-Jan-17 15:03 297 16.1
2020-Jan-17 14:58 298 0 gusting 4 16.1
2020-Jan-17 14:53 286 1 gusting 5 16.1
2020-Jan-17 14:48 306 0 gusting 3 16.1
2020-Jan-17 14:43 360 16.1
2020-Jan-17 14:38 263 16.1
2020-Jan-17 14:33 246 16.1
2020-Jan-17 14:28 246 16.1
2020-Jan-17 14:23 246 15.6
2020-Jan-17 14:18 246 15.6
2020-Jan-17 14:13 360 15.6
2020-Jan-17 14:08 360 15.6
2020-Jan-17 14:03 250 15.0
2020-Jan-17 13:58 360 0 gusting 3 15.0
2020-Jan-17 13:53 360 0 gusting 5 15.0
2020-Jan-17 13:48 360 1 gusting 5 15.0
2020-Jan-17 13:43 360 2 gusting 4 15.0
2020-Jan-17 13:38 360 1 gusting 3 15.0
2020-Jan-17 13:33 229 0 gusting 3 15.0
2020-Jan-17 13:28 227 15.0
2020-Jan-17 13:23 229 1 gusting 4 15.0
2020-Jan-17 13:18 239 1 gusting 4 14.4
2020-Jan-17 13:13 360 14.4
2020-Jan-17 13:08 261 2 gusting 4 14.4
2020-Jan-17 13:03 360 0 gusting 5 13.9
2020-Jan-17 12:58 360 2 gusting 5 13.9
2020-Jan-17 12:53 360 1 gusting 4 13.9
2020-Jan-17 12:48 360 2 gusting 3 13.9
2020-Jan-17 12:43 360 1 gusting 4 13.9
2020-Jan-17 12:38 360 2 gusting 4 14.4
2020-Jan-17 12:33 360 1 gusting 3 14.4
2020-Jan-17 12:28 360 0 gusting 3 14.4
2020-Jan-17 12:23 360 13.9
2020-Jan-17 12:18 360 13.9
2020-Jan-17 12:13 360 1 gusting 2 13.9
2020-Jan-17 12:08 360 13.9
2020-Jan-17 12:03 360 13.9
2020-Jan-17 11:58 360 13.9
2020-Jan-17 11:53 360 13.9
2020-Jan-17 11:48 360 1 gusting 2 13.3
2020-Jan-17 11:43 360 1 gusting 2 13.3
2020-Jan-17 11:38 360 0 gusting 3 13.3
2020-Jan-17 11:33 360 0 gusting 2 13.3
2020-Jan-17 11:28 360 1 gusting 3 12.8
2020-Jan-17 11:23 360 1 gusting 3 12.8
2020-Jan-17 11:18 360 1 gusting 3 12.8
2020-Jan-17 11:13 360 0 gusting 3 12.8
2020-Jan-17 11:08 360 1 gusting 4 12.8
2020-Jan-17 11:03 360 1 gusting 6 12.8
2020-Jan-17 10:58 360 2 gusting 7 13.3
2020-Jan-17 10:53 360 3 gusting 7 13.3
2020-Jan-17 10:48 360 1 gusting 3 13.3
2020-Jan-17 10:43 360 1 gusting 2 13.3
2020-Jan-17 10:38 360 0 gusting 3 13.3
2020-Jan-17 10:33 360 13.3
2020-Jan-17 10:28 360 13.3
2020-Jan-17 10:23 360 13.3
2020-Jan-17 10:18 360 12.8
2020-Jan-17 10:13 360 12.8
2020-Jan-17 10:08 360 12.2
2020-Jan-17 10:03 360 12.2
2020-Jan-17 09:58 360 12.2
2020-Jan-17 09:53 360 11.7
2020-Jan-17 09:48 360 11.7
2020-Jan-17 09:43 360 11.7
2020-Jan-17 09:38 360 11.7
2020-Jan-17 09:33 360 11.1
2020-Jan-17 09:28 360 11.1
2020-Jan-17 09:23 360 11.1
2020-Jan-17 09:18 360 10.6
2020-Jan-17 09:13 360 10.6
2020-Jan-17 09:08 360 10.6
2020-Jan-17 09:03 360 10.6
2020-Jan-17 08:58 360 10.6
2020-Jan-17 08:53 360 10.6
2020-Jan-17 08:48 306 10.6
2020-Jan-17 08:43 306 10.0
2020-Jan-17 08:38 306 10.0
2020-Jan-17 08:33 306 10.0
2020-Jan-17 08:28 306 10.0
2020-Jan-17 08:23 306 10.0
2020-Jan-17 08:18 306 10.0
2020-Jan-17 08:13 305 10.0
2020-Jan-17 08:08 360 10.0
2020-Jan-17 08:03 304 10.0
2020-Jan-17 07:58 302 0 gusting 2 10.0
2020-Jan-17 07:53 360 0 gusting 2 10.0
2020-Jan-17 07:48 304 0 gusting 1 10.0
2020-Jan-17 07:43 305 0 gusting 1 10.0
2020-Jan-17 07:38 360 0 gusting 1 10.0
2020-Jan-17 07:33 304 1 gusting 2 10.0
2020-Jan-17 07:28 305 1 gusting 2 10.0
2020-Jan-17 07:23 304 1 gusting 2 9.4
2020-Jan-17 07:18 305 1 gusting 2 9.4
2020-Jan-17 07:13 360 0 gusting 2 9.4
2020-Jan-17 07:08 360 9.4
2020-Jan-17 07:03 360 9.4
2020-Jan-17 06:58 304 9.4
2020-Jan-17 06:53 360 9.4
2020-Jan-17 06:48 360 9.4
2020-Jan-17 06:43 360 1 gusting 2 9.4
2020-Jan-17 06:38 360 0 gusting 1 9.4
2020-Jan-17 06:33 360 0 gusting 2 9.4
2020-Jan-17 06:28 360 1 gusting 2 9.4
2020-Jan-17 06:23 360 1 gusting 1 9.4
2020-Jan-17 06:18 360 0 gusting 1 8.9
2020-Jan-17 06:13 360 8.9
2020-Jan-17 06:08 360 8.9
2020-Jan-17 06:03 306 8.9
2020-Jan-17 05:58 306 8.3
2020-Jan-17 05:53 306 0 gusting 2 8.3
2020-Jan-17 05:48 306 0 gusting 2 8.3
2020-Jan-17 05:43 306 1 gusting 2 8.3
2020-Jan-17 05:38 306 1 gusting 2 8.3
2020-Jan-17 05:33 306 1 gusting 2 7.8
2020-Jan-17 05:28 306 1 gusting 2 7.8
2020-Jan-17 05:23 306 0 gusting 2 7.8
2020-Jan-17 05:18 306 1 gusting 2 7.2
2020-Jan-17 05:13 306 1 gusting 2 7.2
2020-Jan-17 05:08 306 1 gusting 2 7.2
2020-Jan-17 05:03 306 1 gusting 2 7.2
2020-Jan-17 04:58 304 1 gusting 2 7.2
2020-Jan-17 04:53 304 1 gusting 2 7.2
2020-Jan-17 04:48 304 1 gusting 2 7.2
2020-Jan-17 04:43 304 1 gusting 2 7.2
2020-Jan-17 04:38 304 7.2
2020-Jan-17 04:33 304 0 gusting 1 7.8
2020-Jan-17 04:28 304 0 gusting 1 7.2
2020-Jan-17 04:23 304 0 gusting 1 7.2
2020-Jan-17 04:18 304 7.2
2020-Jan-17 04:13 304 1 gusting 1 7.2
2020-Jan-17 04:08 304 0 gusting 2 7.2
2020-Jan-17 04:03 304 1 gusting 2 7.8
2020-Jan-17 03:58 304 7.8
2020-Jan-17 03:53 304 7.8
2020-Jan-17 03:48 304 7.2
2020-Jan-17 03:43 304 0 gusting 1 7.2
2020-Jan-17 03:38 304 0 gusting 1 7.2
2020-Jan-17 03:33 304 0 gusting 2 7.2
2020-Jan-17 03:28 304 1 gusting 2 7.2
2020-Jan-17 03:23 304 1 gusting 2 7.2
2020-Jan-17 03:18 304 7.2
2020-Jan-17 03:13 304 7.2
2020-Jan-17 03:08 304 7.2
2020-Jan-17 03:03 304 7.2
2020-Jan-17 02:58 304 7.8
2020-Jan-17 02:53 304 7.8
2020-Jan-17 02:48 304 7.8
2020-Jan-17 02:43 304 0 gusting 1 7.8
2020-Jan-17 02:38 304 0 gusting 2 7.8
2020-Jan-17 02:33 304 0 gusting 2 7.8
2020-Jan-17 02:29 304 1 gusting 2 7.8
2020-Jan-17 02:23 304 0 gusting 2 7.8
2020-Jan-17 02:18 304 1 gusting 2 7.8
2020-Jan-17 02:13 304 0 gusting 2 8.3
2020-Jan-17 02:08 304 1 gusting 2 8.3
2020-Jan-17 02:03 304 0 gusting 2 8.3
2020-Jan-17 01:58 304 8.3
2020-Jan-17 01:53 304 8.3
2020-Jan-17 01:48 304 8.9
2020-Jan-17 01:43 304 8.9
2020-Jan-17 01:38 304 8.9
2020-Jan-17 01:33 304 8.9
2020-Jan-17 01:28 304 8.9
2020-Jan-17 01:23 304 8.9
2020-Jan-17 01:18 304 8.9
2020-Jan-17 01:13 304 0 gusting 2 8.9
2020-Jan-17 01:08 304 1 gusting 2 8.9
2020-Jan-17 01:03 304 1 gusting 2 8.9
2020-Jan-17 00:58 304 0 gusting 1 8.9
2020-Jan-17 00:53 304 1 gusting 1 8.3
2020-Jan-17 00:48 304 8.3
2020-Jan-17 00:43 304 8.3
2020-Jan-17 00:38 304 0 gusting 1 8.3
2020-Jan-17 00:33 304 0 gusting 2 8.3
2020-Jan-17 00:28 304 0 gusting 2 8.3
2020-Jan-17 00:23 304 1 gusting 2 8.3
2020-Jan-17 00:18 304 1 gusting 2 8.3
2020-Jan-17 00:13 304 1 gusting 2 8.3
2020-Jan-17 00:08 304 0 gusting 2 8.3
2020-Jan-17 00:03 304 0 gusting 1 8.3
2020-Jan-16 23:58 304 8.3
2020-Jan-16 23:53 304 1 gusting 2 8.3
2020-Jan-16 23:48 304 0 gusting 1 8.3
2020-Jan-16 23:43 304 0 gusting 1 8.3
2020-Jan-16 23:38 304 0 gusting 1 8.3
2020-Jan-16 23:33 304 0 gusting 2 8.3
2020-Jan-16 23:28 304 1 gusting 2 8.3
2020-Jan-16 23:23 302 8.3
2020-Jan-16 23:18 302 8.3
2020-Jan-16 23:13 302 0 gusting 2 8.9
2020-Jan-16 23:08 302 1 gusting 2 8.9
2020-Jan-16 23:03 302 1 gusting 2 8.9
2020-Jan-16 22:58 302 0 gusting 2 8.9
2020-Jan-16 22:53 302 0 gusting 1 8.9
2020-Jan-16 22:48 302 1 gusting 2 8.9
2020-Jan-16 22:43 302 1 gusting 2 8.9
2020-Jan-16 22:38 302 1 gusting 2 8.9
2020-Jan-16 22:33 302 0 gusting 2 8.9
2020-Jan-16 22:28 302 0 gusting 1 8.9
2020-Jan-16 22:23 302 1 gusting 2 8.9
2020-Jan-16 22:18 302 1 gusting 2 8.9
2020-Jan-16 22:13 302 0 gusting 2 8.9
2020-Jan-16 22:08 302 8.9
2020-Jan-16 22:03 302 1 gusting 2 8.9
2020-Jan-16 21:58 302 0 gusting 2 8.9
2020-Jan-16 21:53 302 8.9
2020-Jan-16 21:48 302 8.9
2020-Jan-16 21:43 302 8.9
2020-Jan-16 21:38 302 8.9
2020-Jan-16 21:33 302 8.9
2020-Jan-16 21:28 302 8.9
2020-Jan-16 21:23 302 8.9
2020-Jan-16 21:18 302 8.9
2020-Jan-16 21:13 302 8.9
2020-Jan-16 21:08 302 8.9
2020-Jan-16 21:03 302 8.9
2020-Jan-16 20:58 302 8.9
2020-Jan-16 20:53 302 8.9
2020-Jan-16 20:48 302 8.9
2020-Jan-16 20:43 302 8.9
2020-Jan-16 20:38 302 8.9
2020-Jan-16 20:33 302 8.9
2020-Jan-16 20:28 302 8.9
2020-Jan-16 20:23 302 8.9
2020-Jan-16 20:18 302 8.9
2020-Jan-16 20:13 302 8.9
2020-Jan-16 20:08 302 8.9
2020-Jan-16 20:03 302 8.9
2020-Jan-16 19:58 302 9.4
2020-Jan-16 19:53 302 9.4
2020-Jan-16 19:48 302 9.4
2020-Jan-16 19:43 302 9.4
2020-Jan-16 19:38 302 9.4
2020-Jan-16 19:33 302 9.4
2020-Jan-16 19:28 302 10.0
2020-Jan-16 19:23 302 10.0
2020-Jan-16 19:18 302 10.0
2020-Jan-16 19:13 302 10.0
2020-Jan-16 19:08 302 10.0
2020-Jan-16 19:03 302 10.6
2020-Jan-16 18:58 301 10.6
2020-Jan-16 18:53 301 10.6
2020-Jan-16 18:48 360 10.6
2020-Jan-16 18:43 360 11.1
2020-Jan-16 18:38 360 11.1
2020-Jan-16 18:33 360 11.1
2020-Jan-16 18:28 360 11.1
2020-Jan-16 18:23 360 11.7
2020-Jan-16 18:18 360 11.7
2020-Jan-16 18:13 360 1 gusting 2 12.2
2020-Jan-16 18:08 360 1 gusting 2 12.2
2020-Jan-16 18:03 360 0 gusting 3 12.2
2020-Jan-16 17:58 360 1 gusting 3 12.8
2020-Jan-16 17:53 360 1 gusting 2 13.3
2020-Jan-16 17:48 360 1 gusting 2 13.3
2020-Jan-16 17:43 360 1 gusting 2 14.4
2020-Jan-16 17:38 360 0 gusting 1 14.4
2020-Jan-16 17:33 360 0 gusting 1 15.0
2020-Jan-16 17:28 360 15.6
2020-Jan-16 17:23 301 16.1
2020-Jan-16 17:18 360 16.1
2020-Jan-16 17:13 360 0 gusting 1 16.1
2020-Jan-16 17:08 302 0 gusting 2 16.1
2020-Jan-16 17:03 360 1 gusting 2 16.1
2020-Jan-16 16:58 302 0 gusting 2 16.7
2020-Jan-16 16:53 302 1 gusting 2 16.7
2020-Jan-16 16:48 302 1 gusting 3 16.7
2020-Jan-16 16:43 302 1 gusting 4 16.7
2020-Jan-16 16:38 304 0 gusting 3 16.7
2020-Jan-16 16:33 304 1 gusting 4 16.7
2020-Jan-16 16:28 303 1 gusting 6 16.7
2020-Jan-16 16:23 300 2 gusting 6 16.7
2020-Jan-16 16:18 315 1 gusting 5 16.7
2020-Jan-16 16:13 325 1 gusting 7 17.2
2020-Jan-16 16:08 360 3 gusting 7 17.2
2020-Jan-16 16:03 309 1 gusting 6 17.2
2020-Jan-16 15:58 301 1 gusting 6 17.2
2020-Jan-16 15:53 294 3 gusting 6 17.2
2020-Jan-16 15:48 360 0 gusting 6 17.2
2020-Jan-16 15:43 360 2 gusting 6 17.2
2020-Jan-16 15:38 360 3 gusting 7 17.2
2020-Jan-16 15:33 360 3 gusting 8 17.2
2020-Jan-16 15:28 360 2 gusting 8 17.2
2020-Jan-16 15:23 360 3 gusting 8 17.2
2020-Jan-16 15:18 360 3 gusting 7 17.2
2020-Jan-16 15:13 360 4 gusting 10 17.2
2020-Jan-16 15:08 360 3 gusting 10 17.2
2020-Jan-16 15:03 360 2 gusting 10 17.8
2020-Jan-16 14:58 360 5 gusting 10 17.8
2020-Jan-16 14:53 260 4 gusting 9 17.8
2020-Jan-16 14:48 285 2 gusting 9 17.8
2020-Jan-16 14:43 321 3 gusting 8 17.8
2020-Jan-16 14:38 273 2 gusting 7 18.3
2020-Jan-16 14:33 249 3 gusting 6 18.3
2020-Jan-16 14:28 219 3 gusting 7 18.3
2020-Jan-16 14:23 306 3 gusting 7 18.3
2020-Jan-16 14:18 289 0 gusting 7 18.3
2020-Jan-16 14:13 240 3 gusting 7 18.3
2020-Jan-16 14:08 281 2 gusting 6 18.3
2020-Jan-16 14:03 235 1 gusting 7 18.3
2020-Jan-16 13:58 250 4 gusting 9 18.3
2020-Jan-16 13:53 283 3 gusting 7 18.3
2020-Jan-16 13:48 203 1 gusting 6 18.3
2020-Jan-16 13:43 244 2 gusting 6 18.3
2020-Jan-16 13:38 200 2 gusting 5 18.3
2020-Jan-16 13:33 274 2 gusting 6 18.3
2020-Jan-16 13:28 240 2 gusting 6 18.3
2020-Jan-16 13:23 228 3 gusting 6 18.3
2020-Jan-16 13:18 199 1 gusting 4 18.3
2020-Jan-16 13:13 360 1 gusting 5 18.3
2020-Jan-16 13:08 252 2 gusting 5 18.3
2020-Jan-16 13:03 360 2 gusting 6 18.3
2020-Jan-16 12:58 360 1 gusting 6 18.3
2020-Jan-16 12:53 192 3 gusting 6 18.3
2020-Jan-16 12:48 169 2 gusting 6 18.3
2020-Jan-16 12:43 197 1 gusting 5 18.3
2020-Jan-16 12:38 232 1 gusting 4 18.3
2020-Jan-16 12:33 225 2 gusting 4 17.8
2020-Jan-16 12:28 140 2 gusting 4 17.8
2020-Jan-16 12:23 222 1 gusting 7 17.8
2020-Jan-16 12:18 241 3 gusting 7 17.8
2020-Jan-16 12:13 216 2 gusting 5 17.8
2020-Jan-16 12:08 213 2 gusting 7 17.8
2020-Jan-16 12:03 246 1 gusting 7 17.2
2020-Jan-16 11:58 250 2 gusting 6 17.8
2020-Jan-16 11:53 190 1 gusting 5 17.2
2020-Jan-16 11:48 188 2 gusting 5 17.2
2020-Jan-16 11:43 255 2 gusting 4 17.2
2020-Jan-16 11:38 199 0 gusting 5 17.2
2020-Jan-16 11:33 202 3 gusting 6 16.7
2020-Jan-16 11:28 248 4 gusting 6 16.7
2020-Jan-16 11:23 244 2 gusting 6 16.7
2020-Jan-16 11:18 244 2 gusting 6 16.7
2020-Jan-16 11:13 282 2 gusting 3 16.7
2020-Jan-16 11:08 257 1 gusting 3 16.7
2020-Jan-16 11:03 258 1 gusting 3 16.7
2020-Jan-16 10:58 242 1 gusting 2 16.7
2020-Jan-16 10:53 242 1 gusting 2 16.7
2020-Jan-16 10:48 076 0 gusting 1 16.7
2020-Jan-16 10:43 076 0 gusting 1 16.7
2020-Jan-16 10:38 076 0 gusting 1 16.1
2020-Jan-16 10:33 076 16.1
2020-Jan-16 10:28 076 15.6
2020-Jan-16 10:23 076 15.6
2020-Jan-16 10:18 076 15.0
2020-Jan-16 10:13 076 15.0
2020-Jan-16 10:08 076 14.4
2020-Jan-16 10:03 076 13.9
2020-Jan-16 09:58 076 0 gusting 1 13.9
2020-Jan-16 09:53 360 0 gusting 1 13.3
2020-Jan-16 09:48 076 0 gusting 1 12.8
2020-Jan-16 09:43 076 12.2
2020-Jan-16 09:38 076 11.7
2020-Jan-16 09:33 076 11.7
2020-Jan-16 09:28 360 0 gusting 1 11.1
2020-Jan-16 09:23 360 0 gusting 1 10.6
2020-Jan-16 09:18 360 0 gusting 1 10.6
2020-Jan-16 09:13 360 0 gusting 1 10.0
2020-Jan-16 09:08 360 0 gusting 1 10.0
2020-Jan-16 09:03 360 0 gusting 1 9.4
2020-Jan-16 08:58 360 0 gusting 1 8.9
2020-Jan-16 08:53 360 0 gusting 1 8.3
2020-Jan-16 08:48 360 7.8
2020-Jan-16 08:43 360 0 gusting 1 7.8
2020-Jan-16 08:38 360 0 gusting 2 7.2
2020-Jan-16 08:33 360 0 gusting 2 7.2
2020-Jan-16 08:28 360 1 gusting 2 6.7
2020-Jan-16 08:23 360 0 gusting 2 6.7
2020-Jan-16 08:18 360 1 gusting 2 6.1
2020-Jan-16 08:13 360 1 gusting 2 6.1
2020-Jan-16 08:08 076 1 gusting 2 6.1
2020-Jan-16 08:03 076 1 gusting 3 6.1
2020-Jan-16 07:58 076 1 gusting 3 6.1
2020-Jan-16 07:53 075 1 gusting 3 6.1
2020-Jan-16 07:48 074 1 gusting 2 6.1
2020-Jan-16 07:43 074 2 gusting 2 6.1
2020-Jan-16 07:38 074 1 gusting 2 6.1
2020-Jan-16 07:33 074 1 gusting 2 6.1
2020-Jan-16 07:28 074 1 gusting 2 6.1
2020-Jan-16 07:23 074 1 gusting 2 6.1
2020-Jan-16 07:18 074 1 gusting 2 6.1
2020-Jan-16 07:13 074 1 gusting 4 6.1
2020-Jan-16 07:08 071 1 gusting 4 6.1
2020-Jan-16 07:03 067 3 gusting 4 6.1
2020-Jan-16 06:58 317 1 gusting 3 6.1
2020-Jan-16 06:53 315 1 gusting 3 5.6
2020-Jan-16 06:48 315 1 gusting 3 5.6
2020-Jan-16 06:43 315 1 gusting 2 6.1
2020-Jan-16 06:38 315 1 gusting 2 6.1
2020-Jan-16 06:33 315 2 gusting 2 6.1
2020-Jan-16 06:28 315 1 gusting 2 6.1
2020-Jan-16 06:23 315 1 gusting 2 6.1
2020-Jan-16 06:18 315 0 gusting 2 6.1
2020-Jan-16 06:13 315 0 gusting 2 6.1
2020-Jan-16 06:08 315 6.1
2020-Jan-16 06:03 315 0 gusting 2 6.1
2020-Jan-16 05:58 315 0 gusting 2 6.1
2020-Jan-16 05:53 315 1 gusting 2 6.1
2020-Jan-16 05:48 315 2 gusting 2 6.1
2020-Jan-16 05:43 315 1 gusting 2 6.1
2020-Jan-16 05:38 315 1 gusting 2 6.1
2020-Jan-16 05:33 315 1 gusting 2 6.1
2020-Jan-16 05:28 315 1 gusting 2 6.1
2020-Jan-16 05:23 315 1 gusting 2 6.7
2020-Jan-16 05:18 315 1 gusting 2 6.7
2020-Jan-16 05:13 314 2 gusting 3 6.1
2020-Jan-16 05:08 314 1 gusting 3 6.1
2020-Jan-16 05:03 312 1 gusting 2 6.1
2020-Jan-16 04:58 311 1 gusting 2 6.1
2020-Jan-16 04:53 311 1 gusting 3 6.1
2020-Jan-16 04:48 311 1 gusting 2 6.1
2020-Jan-16 04:43 311 0 gusting 2 6.1
2020-Jan-16 04:38 311 1 gusting 2 6.1
2020-Jan-16 04:33 311 0 gusting 2 6.1
2020-Jan-16 04:28 311 1 gusting 1 6.1
2020-Jan-16 04:23 311 1 gusting 1 6.1
2020-Jan-16 04:18 311 1 gusting 1 6.1
2020-Jan-16 04:13 311 0 gusting 1 6.1
2020-Jan-16 04:08 311 1 gusting 1 6.1
2020-Jan-16 04:03 311 0 gusting 1 6.1
2020-Jan-16 03:58 311 0 gusting 1 6.1
2020-Jan-16 03:53 311 0 gusting 2 6.1
2020-Jan-16 03:48 311 1 gusting 2 6.1
2020-Jan-16 03:43 311 1 gusting 2 6.1
2020-Jan-16 03:38 311 1 gusting 2 6.1
2020-Jan-16 03:33 311 0 gusting 2 6.1
2020-Jan-16 03:28 311 1 gusting 2 6.1
2020-Jan-16 03:23 310 1 gusting 2 6.1
2020-Jan-16 03:18 310 1 gusting 2 6.1
2020-Jan-16 03:13 310 1 gusting 2 6.1
2020-Jan-16 03:08 310 0 gusting 2 6.7
2020-Jan-16 03:03 310 1 gusting 2 6.7
2020-Jan-16 02:58 310 1 gusting 2 6.7
2020-Jan-16 02:53 310 1 gusting 2 6.7
2020-Jan-16 02:48 310 0 gusting 2 6.7
2020-Jan-16 02:43 310 1 gusting 2 6.7
2020-Jan-16 02:38 310 0 gusting 1 6.7
2020-Jan-16 02:33 310 0 gusting 2 6.7
2020-Jan-16 02:28 310 1 gusting 2 6.7
2020-Jan-16 02:23 310 0 gusting 2 6.7
2020-Jan-16 02:18 310 0 gusting 2 6.7
2020-Jan-16 02:13 310 1 gusting 1 6.7
2020-Jan-16 02:08 310 0 gusting 1 6.7
2020-Jan-16 02:03 310 1 gusting 1 6.7
2020-Jan-16 01:58 310 1 gusting 2 6.7
2020-Jan-16 01:53 310 0 gusting 2 6.7
2020-Jan-16 01:48 310 1 gusting 2 7.2
2020-Jan-16 01:43 310 1 gusting 2 7.2
2020-Jan-16 01:38 310 1 gusting 2 7.2
2020-Jan-16 01:33 310 0 gusting 2 7.2
2020-Jan-16 01:28 310 1 gusting 2 7.2
2020-Jan-16 01:23 310 1 gusting 2 7.2
2020-Jan-16 01:18 310 1 gusting 1 7.2
2020-Jan-16 01:13 310 1 gusting 1 7.2
2020-Jan-16 01:08 310 1 gusting 1 7.2
2020-Jan-16 01:03 310 0 gusting 1 7.2
2020-Jan-16 00:58 310 0 gusting 1 7.2
2020-Jan-16 00:53 310 0 gusting 1 7.2
2020-Jan-16 00:48 310 1 gusting 2 7.2
2020-Jan-16 00:43 310 1 gusting 2 7.2
2020-Jan-16 00:38 310 1 gusting 2 7.2
2020-Jan-16 00:33 309 1 gusting 2 7.2
2020-Jan-16 00:28 309 0 gusting 2 7.2
2020-Jan-16 00:23 309 1 gusting 2 7.2
2020-Jan-16 00:18 309 1 gusting 2 7.2
2020-Jan-16 00:13 309 0 gusting 2 7.2
2020-Jan-16 00:08 309 1 gusting 2 7.2
2020-Jan-16 00:03 309 1 gusting 2 7.2
2020-Jan-15 23:58 309 1 gusting 2 7.2
2020-Jan-15 23:53 308 1 gusting 2 7.2
2020-Jan-15 23:48 308 0 gusting 2 7.2
2020-Jan-15 23:43 308 1 gusting 2 7.8
2020-Jan-15 23:38 308 0 gusting 2 7.8
2020-Jan-15 23:33 308 1 gusting 2 7.8
2020-Jan-15 23:28 308 1 gusting 1 7.8
2020-Jan-15 23:23 308 1 gusting 2 7.8
2020-Jan-15 23:18 308 0 gusting 2 7.8
2020-Jan-15 23:13 308 1 gusting 2 7.8
2020-Jan-15 23:08 308 1 gusting 2 7.8
2020-Jan-15 23:03 308 1 gusting 2 7.8
2020-Jan-15 22:58 308 1 gusting 2 7.8
2020-Jan-15 22:53 308 1 gusting 2 7.8
2020-Jan-15 22:48 308 1 gusting 2 7.8
2020-Jan-15 22:43 308 1 gusting 2 7.8
2020-Jan-15 22:38 307 1 gusting 2 7.8
2020-Jan-15 22:33 307 0 gusting 2 7.8
2020-Jan-15 22:28 307 1 gusting 2 7.8
2020-Jan-15 22:23 307 0 gusting 1 7.8
2020-Jan-15 22:18 307 1 gusting 2 7.8
2020-Jan-15 22:13 307 1 gusting 2 7.8
2020-Jan-15 22:08 307 0 gusting 1 7.8
2020-Jan-15 22:03 307 1 gusting 1 7.8
2020-Jan-15 21:58 307 1 gusting 1 8.3
2020-Jan-15 21:53 307 0 gusting 2 8.3
2020-Jan-15 21:48 307 1 gusting 2 8.3
2020-Jan-15 21:43 307 1 gusting 2 8.3
2020-Jan-15 21:38 307 1 gusting 2 8.3
2020-Jan-15 21:33 307 1 gusting 2 8.3
2020-Jan-15 21:28 307 1 gusting 2 8.3
2020-Jan-15 21:23 307 1 gusting 2 8.3
2020-Jan-15 21:18 307 1 gusting 1 8.3
2020-Jan-15 21:13 307 1 gusting 1 8.3
2020-Jan-15 21:08 307 0 gusting 2 8.3
2020-Jan-15 21:03 307 1 gusting 2 8.3
2020-Jan-15 20:58 307 1 gusting 2 8.3
2020-Jan-15 20:53 307 0 gusting 2 8.3
2020-Jan-15 20:48 307 1 gusting 2 8.3
2020-Jan-15 20:43 307 1 gusting 2 8.3
2020-Jan-15 20:38 307 1 gusting 2 8.3
2020-Jan-15 20:33 307 1 gusting 2 8.3
2020-Jan-15 20:28 306 0 gusting 2 8.3
2020-Jan-15 20:23 306 1 gusting 2 8.3
2020-Jan-15 20:18 306 1 gusting 2 8.9
2020-Jan-15 20:13 306 0 gusting 2 8.9
2020-Jan-15 20:08 306 0 gusting 2 8.9
2020-Jan-15 20:03 306 0 gusting 2 8.9
2020-Jan-15 19:58 306 8.9
2020-Jan-15 19:53 306 8.9
2020-Jan-15 19:48 306 8.9
2020-Jan-15 19:43 306 9.4
2020-Jan-15 19:38 306 9.4
2020-Jan-15 19:33 306 9.4
2020-Jan-15 19:28 306 9.4
2020-Jan-15 19:23 306 9.4
2020-Jan-15 19:18 306 9.4
2020-Jan-15 19:13 306 9.4
2020-Jan-15 19:08 306 9.4
2020-Jan-15 19:03 305 10.0
2020-Jan-15 18:58 305 10.0
2020-Jan-15 18:53 305 10.0
2020-Jan-15 18:48 305 10.0
2020-Jan-15 18:43 305 10.6
2020-Jan-15 18:38 305 10.6
2020-Jan-15 18:33 305 11.1
2020-Jan-15 18:28 305 11.1
2020-Jan-15 18:23 305 11.7
2020-Jan-15 18:18 304 11.7
2020-Jan-15 18:13 304 12.2
2020-Jan-15 18:08 303 12.2
2020-Jan-15 18:03 360 12.2